This is the latest recevied weather packets stored in our database for station/object KD7JB. If no packets are shown the sender has not sent any weather packets the latest 10 day(s).
| Time | Temp. | Humidity | Pressure | Rain* | Wind** | Luminosity | Snow |
|---|---|---|---|---|---|---|---|
| 1777725960 | 12.78° C | 53% | 1178.1 hPa | 0 mm | - | 2 W/m² | - |
| 1777725657 | 12.78° C | 52% | 1178 hPa | 0 mm | - | 1 W/m² | - |
| 1777725355 | 12.78° C | 52% | 1177.8 hPa | 0 mm | - | 1 W/m² | - |
| 1777725052 | 12.78° C | 52% | 1177.6 hPa | 0 mm | - | 0 W/m² | - |
| 1777724748 | 12.78° C | 52% | 1177.6 hPa | 0 mm | - | 0 W/m² | - |
| 1777724446 | 12.78° C | 52% | 1177.6 hPa | 0 mm | - | 0 W/m² | - |
| 1777724143 | 13.33° C | 52% | 1177.8 hPa | 0 mm | - | 0 W/m² | - |
| 1777723840 | 12.78° C | 51% | 1178.1 hPa | 0 mm | - | 0 W/m² | - |
| 1777723536 | 12.78° C | 54% | 1178.3 hPa | 0 mm | - | 0 W/m² | - |
| 1777723234 | 12.22° C | 57% | 1178 hPa | 0 mm | - | 0 W/m² | - |
| 1777722932 | 12.22° C | 56% | 1178.3 hPa | 0 mm | - | 0 W/m² | - |
| 1777722021 | 11.67° C | 57% | 1178.3 hPa | 0 mm | - | 0 W/m² | - |
| 1777721718 | 12.22° C | 56% | 1178.5 hPa | 0 mm | - | 0 W/m² | - |
| 1777721417 | 12.22° C | 55% | 1178.7 hPa | 0 mm | - | 0 W/m² | - |
| 1777721114 | 12.22° C | 55% | 1178.5 hPa | 0 mm | - | 0 W/m² | - |
| 1777720812 | 12.22° C | 55% | 1178.5 hPa | 0 mm | - | 0 W/m² | - |
| 1777720509 | 12.78° C | 54% | 1178.7 hPa | 0 mm | - | 0 W/m² | - |
| 1777720206 | 12.78° C | 52% | 1178.5 hPa | 0 mm | - | 0 W/m² | - |
| 1777719903 | 12.78° C | 52% | 1178.4 hPa | 0 mm | - | 0 W/m² | - |
| 1777719601 | 12.78° C | 53% | 1178.4 hPa | 0 mm | - | 0 W/m² | - |
| 1777719298 | 12.78° C | 53% | 1178.5 hPa | 0 mm | - | 0 W/m² | - |
| 1777718996 | 12.78° C | 53% | 1178.2 hPa | 0 mm | - | 0 W/m² | - |
| 1777718693 | 12.78° C | 51% | 1178.5 hPa | 0 mm | - | 0 W/m² | - |
| 1777718390 | 12.78° C | 53% | 1178.2 hPa | 0 mm | - | 0 W/m² | - |
| 1777718087 | 12.78° C | 53% | 1178.4 hPa | 0 mm | - | 0 W/m² | - |
* Rain latest hour (hover to see other rain measurements)
** Current wind speed in m/s (hover to see current wind gust speed)